Погода в Матросах

Россия / Республика Карелия     61°46′52″N   33°48′46″E
В апреле 2022 года жителям России запретили посещать сайт meteo.paraplan.net по решению Генеральной прокуратуры. Аудитория сайта уменьшилась в 10 раз. Владельцы сайта не видят смысла в поддержке погодного сервера в таких условиях. Сайт будет закрыт в октябре.
темп.,
°C
ветер,
м/с
пор.,
м/с
влажн.,
%
обл.,
%
осадки,
мм/ч
давл.,
гПа
погр.,
м
25 сентября, вс
вс2500:00+7св4990100 0.0 1010812
03:00+6ссв41094100 0.1 1010807
06:00+5св5992100 0.1 1009810
09:00+5св41093100 0.1 1009747
12:00+6св3892100 0.0 1009652
15:00+7всв3691100 0.0 1009512
18:00+8св2696100 0.0 1009378
21:00+7всв2699100 0.1 1009204
26 сентября, пн
пн2600:00+7всв2599100 0.1 1009174
03:00+7всв2498100 0.2 1009138
06:00+7всв2598100 0.0 1010197
09:00+8всв2591100 0.0 1010331
12:00+9св2482100 0.0 1010590
15:00+9св2489100 0.3 1010411
18:00+7ссв2599100 1.4 1011380
21:00+7всв2696100 1.5 1012366
27 сентября, вт
вт2700:00+6всв2596100 0.1 1012309
03:00+6всв2596100 0.1 1013346
06:00+6в2796100 0.1 1013492
09:00+7в2795100 0.1 1014605
12:00+8в368862 0.1 1015693
15:00+9в368384 0.2 1015792
18:00+8в3989100 0.1 1016536
21:00+8в31092100 0.4 1016467
28 сентября, ср
ср2800:00+8в3994100 0.2 1017531
03:00+8в3894100 0.3 1017538
06:00+7в389192 0.1 1017498
09:00+8в498984 0.1 1017776
12:00+8в4108499 0.1 1017885
15:00+9в597599 0.1 1016964
18:00+8в51077100 0.1 1016922
21:00+7в51070100 0.1 10161027
29 сентября, чт
чт2900:00+5в51171100 0.0 1015894
03:00+5в61276100 0.0 1014861
06:00+4в51288100 0.1 1013909
09:00+4в51291100 0.4 1012923
12:00+4вюв51293100 0.7 1013804
15:00+4вюв51193100 1.7 1013763
18:00+3вюв41195100 0.9 1014653
21:00+4юв41095100 1.3 1014562